Change the Weather History Date:

Saturday, October 20, 2012

  Actual Average Record
Temperature  
Mean Temperature 46 °F -  
Max Temperature 59 °F 53 °F 76 °F (1953)
Min Temperature 35 °F 32 °F 17 °F (1974)
Degree Days  
Heating Degree Days 19    
Moisture  
Dew Point 42 °F    
Average Humidity 91    
Maximum Humidity 100    
Minimum Humidity 51    
Precipitation  
Precipitation 0.01 in - - ()
Sea Level Pressure  
Sea Level Pressure 29.69 in    
Wind  
Wind Speed 2 mph (NW)    
Max Wind Speed 10 mph    
Max Gust Speed -    
Visibility 8 miles    
Events Fog , Rain    
Averages and records for this station are not official NWS values.
T = Trace of Precipitation, MM = Missing Value Source: NWS Daily Summary

Daily Weather History Graph

Daily Weather History Graph

Search for Another Location

Airport or City:

Trip Planner

Search our weather history database for the weather conditions in past years. The results will help you decide how hot, cold, wet, or windy it might be!

Date:

Astronomy

Oct. 20, 2012 Rise Set
Actual Time 8:02 AM EDT 6:44 PM EDT
Civil Twilight 7:32 AM EDT 7:14 PM EDT
Nautical Twilight 6:58 AM EDT 7:48 PM EDT
Astronomical Twilight 6:23 AM EDT 8:22 PM EDT
Moon 1:46 PM EDT (10/20) 11:21 PM EDT (10/20)
Length of Visible Light 11h 41m
Length of Day
10h 41m
Waxing Crescent, 34% of the Moon is Illuminated
Oct 20
Waxing Crescent
Oct 21
First Quarter
Oct 29
Full
Nov 6
Last Quarter
Nov 13
New

Hourly Weather History & Observations

Time (EDT) Temp. Windchill Dew Point Humidity Pressure Visibility Wind Dir Wind Speed Gust Speed Precip Events Conditions
12:01 AM 35.6 °F - 35.6 °F 100% 29.61 in 0.5 mi Calm Calm - N/A Fog Fog
12:16 AM 35.6 °F - 35.6 °F 100% 29.61 in 1.0 mi Calm Calm - N/A   Mist
12:32 AM 35.6 °F - 35.6 °F 100% 29.61 in 3.0 mi Calm Calm - N/A   Overcast
12:38 AM 35.6 °F - 35.6 °F 100% 29.61 in 1.8 mi Calm Calm - N/A   Overcast
12:54 AM 36.0 °F - 36.0 °F 100% 29.62 in 0.2 mi Calm Calm - N/A Fog Fog
1:32 AM 37.4 °F - 37.4 °F 100% 29.60 in 0.5 mi Calm Calm - N/A Fog Fog
1:54 AM 37.9 °F - 37.0 °F 97% 29.62 in 0.5 mi Calm Calm - N/A Fog Fog
2:10 AM 37.4 °F - 37.4 °F 100% 29.61 in 1.8 mi Calm Calm - N/A   Overcast
2:15 AM 37.4 °F - 37.4 °F 100% 29.61 in 3.0 mi Calm Calm - N/A   Overcast
2:54 AM 39.0 °F - 39.0 °F 100% 29.62 in 10.0 mi Calm Calm - N/A   Overcast
3:38 AM 39.2 °F - 39.2 °F 100% 29.61 in 10.0 mi Calm Calm - N/A   Overcast
3:54 AM 41.0 °F - 39.9 °F 96% 29.63 in 10.0 mi Calm Calm - 0.00 in   Overcast
4:01 AM 41.0 °F - 41.0 °F 100% 29.61 in 10.0 mi Calm Calm - 0.00 in Rain Light Rain
5:15 AM 42.8 °F - 41.0 °F 93% 29.62 in 10.0 mi Calm Calm - 0.00 in   Overcast
5:51 AM 42.8 °F - 42.8 °F 100% 29.63 in 9.0 mi Calm Calm - 0.00 in Rain Light Rain
5:54 AM 43.0 °F - 42.1 °F 97% 29.64 in 10.0 mi Calm Calm - 0.00 in   Overcast
6:37 AM 44.6 °F 43.1 °F 42.8 °F 93% 29.64 in 8.0 mi NW 3.5 mph - N/A   Overcast
6:54 AM 45.0 °F - 44.1 °F 97% 29.66 in 10.0 mi Calm Calm - N/A   Overcast
7:25 AM 46.4 °F 44.3 °F 44.6 °F 93% 29.64 in 10.0 mi North 4.6 mph - N/A   Overcast
7:46 AM 46.4 °F - 44.6 °F 93% 29.65 in 10.0 mi Calm Calm - N/A   Overcast
7:54 AM 45.0 °F 43.5 °F 45.0 °F 100% 29.67 in 10.0 mi North 3.5 mph - N/A   Overcast
8:08 AM 44.6 °F - 44.6 °F 100% 29.65 in 8.0 mi Calm Calm - N/A   Overcast
8:21 AM 44.6 °F - 44.6 °F 100% 29.65 in 8.0 mi Calm Calm - N/A   Overcast
8:54 AM 45.0 °F 43.5 °F 44.1 °F 97% 29.68 in 9.0 mi North 3.5 mph - N/A   Overcast
9:06 AM 46.4 °F 45.2 °F 44.6 °F 93% 29.67 in 10.0 mi NNW 3.5 mph - N/A   Overcast
9:45 AM 46.4 °F 45.2 °F 46.4 °F 100% 29.68 in 10.0 mi NNW 3.5 mph - N/A   Overcast
9:54 AM 48.0 °F - 46.0 °F 93% 29.70 in 10.0 mi NNW 3.5 mph - N/A   Overcast
10:09 AM 48.2 °F - 46.4 °F 93% 29.68 in 10.0 mi North 4.6 mph - N/A   Overcast
10:54 AM 50.0 °F - 46.9 °F 89% 29.70 in 10.0 mi NW 5.8 mph - N/A   Partly Cloudy
11:32 AM 51.8 °F - 46.4 °F 82% 29.69 in 10.0 mi NW 9.2 mph - N/A   Mostly Cloudy
11:54 AM 52.0 °F - 46.0 °F 80% 29.70 in 10.0 mi NW 8.1 mph - N/A   Scattered Clouds
12:54 PM 54.0 °F - 45.0 °F 72% 29.72 in 10.0 mi NNW 9.2 mph - N/A   Scattered Clouds
2:54 PM 57.9 °F - 43.0 °F 58% 29.72 in 10.0 mi Variable 5.8 mph - N/A   Partly Cloudy
3:54 PM 57.9 °F - 39.9 °F 51% 29.73 in 10.0 mi NNW 3.5 mph - N/A   Clear
4:54 PM 57.9 °F - 41.0 °F 53% 29.73 in 10.0 mi NW 10.4 mph - N/A   Clear
5:54 PM 54.0 °F - 44.1 °F 69% 29.75 in 10.0 mi WNW 8.1 mph - N/A   Overcast
6:54 PM 50.0 °F - 43.0 °F 77% 29.76 in 10.0 mi West 3.5 mph - N/A   Clear
7:54 PM 48.9 °F - 43.0 °F 80% 29.78 in 10.0 mi West 5.8 mph - N/A   Clear
8:54 PM 46.9 °F - 42.1 °F 83% 29.80 in 10.0 mi West 4.6 mph - N/A   Clear
9:54 PM 46.9 °F - 45.0 °F 93% 29.83 in 10.0 mi West 4.6 mph - N/A   Clear
10:54 PM 42.1 °F 40.2 °F 42.1 °F 100% 29.83 in 9.0 mi West 3.5 mph - N/A   Clear
11:20 PM 42.8 °F 40.1 °F 41.0 °F 93% 29.82 in 2.0 mi West 4.6 mph - N/A   Partly Cloudy
11:30 PM 46.4 °F 44.3 °F 44.6 °F 93% 29.82 in 9.0 mi West 4.6 mph - N/A   Partly Cloudy
11:50 PM 42.8 °F 41.1 °F 42.8 °F 100% 29.83 in 1.5 mi WNW 3.5 mph - N/A   Clear
11:54 PM 39.9 °F 37.8 °F 39.9 °F 100% 29.85 in 1.2 mi West 3.5 mph - N/A   Clear